Regional Weather Roundup
Issued by NWS

Home | Current Version | Previous Version | Graphics & Text | Print | Product List | Glossary On
Versions: 1 2 3 4 5 6 7 8 9 10 11 12 13 14 15 16 17 18 19 20 21 22 23 24 25 26 27 28 29 30 31 32 33 34 35 36 37 38 39 40 41 42 43 44 45 46 47 48 49 50
000
ASUS43 KMKX 080800
RWRWI

WISCONSIN REGIONAL WEATHER ROUNDUP
NATIONAL WEATHER SERVICE MILWAUKEE/SULLIVAN WI
200 AM CST MON FEB 08 2016

NOTE: "FAIR" INDICATES FEW OR NO CLOUDS BELOW 12,000 FEET WITH NO
SIGNIFICANT WEATHER AND/OR OBSTRUCTIONS TO VISIBILITY.

WIZ001-002-006>008-014>016-023>028-080900-
NORTHWEST WISCONSIN

CITY           SKY/WX    TMP DP  RH WIND       PRES   REMARKS
SUPERIOR ARPT  CLOUDY    17  11  75 NW13G20   29.73R WCI   4
ASHLAND        LGT SNOW  26  24  92 N6        29.65R FOG     WCI  19
HAYWARD        CLOUDY    19  14  81 VRB6      29.65R WCI  11
SIREN          LGT SNOW  16  10  79 NW14G24   29.73S WCI   1
CUMBERLAND     CLOUDY    18  10  73 NW18G24   29.67R WCI   2
RICE LAKE      LGT SNOW  18  12  77 W12G18    29.69R WCI   6
CHETEK         LGT SNOW  18  13  80 NW7       29.67S WCI   9
LADYSMITH      LGT SNOW  22  19  88 W14       29.63S WCI   9
EAU CLAIRE     NOT AVBL
MENOMONIE      CLOUDY    19  12  72 W15G21    29.70R WCI   5
NEW RICHMOND   LGT SNOW  16  10  76 NW18G24   29.73R WCI   0
OSCEOLA        LGT SNOW  17  11  78 NW12G25   29.78R WCI   4
$$

WIZ003>005-009-010-017-018-080900-
NORTH CENTRAL WISCONSIN

CITY           SKY/WX    TMP DP  RH WIND       PRES   REMARKS
MANITOWISH WTR LGT SNOW  26  25  99 W5        29.51S WCI  20
ARBOR VITAE    CLOUDY    29  26  88 NW7       29.52R WCI  22
WOODRUFF       CLOUDY    29  26  88 NW7       29.52R WCI  22
RHINELANDER    LGT SNOW  28  24  85 W13       29.52R FOG     WCI  17
EAGLE RIVER    FLURRIES  29  28  93 NW7       29.50S WCI  22
LAND O LAKES   LGT SNOW  30  28  95 CALM      29.51R
PHILLIPS       FLURRIES  23  20  89 W6        29.56R WCI  16
TOMAHAWK       LGT SNOW  26  23  88 W10       29.55R WCI  16
MEDFORD        LGT SNOW  22  20  93 W12       29.56S WCI  11
MERRILL        LGT SNOW  27  25  91 NW12      29.56S WCI  17
$$

WIZ029-030-035-036-043>047-080900-
CENTRAL WISCONSIN

CITY           SKY/WX    TMP DP  RH WIND       PRES   REMARKS
WAUSAU         LGT SNOW  28  24  85 NW9       29.54S FOG     WCI  19
MOSINEE        CLOUDY    28  27  93 W13       29.57S WCI  18
MARSHFIELD     LGT SNOW  24  18  77 NW16      29.57S WCI  11
STEVENS POINT  CLOUDY    27  22  82 W9        29.57S WCI  18
WAUPACA        CLOUDY    34  28  80 W12G18    29.57R WCI  25
WAUTOMA        NOT AVBL
WISC RAPIDS    CLOUDY    27  21  78 NW9       29.60S WCI  18
CAMP DOUGLAS   FLURRIES  27  27 100 W16       29.62R WCI  14
$$

WIZ011>013-019>022-031-037>040-048>050-080900-
NORTHEAST WISCONSIN

CITY           SKY/WX    TMP DP  RH WIND       PRES   REMARKS
ANTIGO         FLURRIES  29  27  94 W10       29.52S WCI  19
SHAWANO        CLOUDY    37  30  78 W5        29.54F WCI  33
OCONTO         CLOUDY    34  28  79 CALM      29.54F
STURGEON BAY   CLOUDY    34  27  75 SW5       29.57S WCI  30
GREEN BAY      CLOUDY    34  28  79 SW5       29.55F WCI  30
MANITOWOC      NOT AVBL
APPLETON       CLOUDY    34  28  80 SW7       29.54S WCI  28
CLINTONVILLE   CLOUDY    34  32  93 W5        29.55S WCI  30
OSHKOSH        CLOUDY    34  28  79 CALM      29.56S
$$

WIZ032>034-041-042-053>061-080900-
SOUTHWEST WISCONSIN

CITY           SKY/WX    TMP DP  RH WIND       PRES   REMARKS
LA CROSSE      LGT SNOW  22  16  78 NW17      29.69S WCI   8
SPARTA         LGT SNOW  24  20  87 NW8       29.66S WCI  15
VIROQUA        CLOUDY    22  20  93 W14       29.63S WCI   9
BOSCOBEL       CLOUDY    28  17  63 W12G18    29.67S WCI  18
PRAIRIE DU CHI MIX PCPN  26  19  74 W17       29.69S WCI  13
PLATTEVILLE    CLOUDY    29  23  79 W15       29.65S WCI  18
$$

WIZ056-057-062-063-064-067-068-080900-
SOUTH CENTRAL WISCONSIN

CITY           SKY/WX    TMP DP  RH WIND       PRES   REMARKS
REEDSBURG      CLOUDY    31  26  82 NW9       29.60R WCI  22
BARABOO/DELLS  CLOUDY    30  26  86 NW9       29.59S WCI  21
LONE ROCK      NOT AVBL
MINERAL POINT  FLURRIES  30  21  69 W18G25    29.61F WCI  18
MADISON        CLOUDY    33  31  92 VRB5      29.58F WCI  29
MIDDLETON      CLOUDY    34  32  92 W12       29.58F WCI  26
WATERTOWN      CLOUDY    32  32 100 SW7       29.58F WCI  26
MONROE         FLURRIES  32  32 100 W17G25    29.60F WCI  21
JANESVILLE     CLOUDY    32  32 100 SW7       29.61F WCI  26
$$

WIZ051-052-058>065-066-070>072-080900-
SOUTHEAST WISCONSIN

CITY           SKY/WX    TMP DP  RH WIND       PRES   REMARKS
MILWAUKEE      PTCLDY    30  26  85 SW8       29.60F WCI  22
WAUKESHA       CLOUDY    30  27  86 SW7       29.60F WCI  23
MILWAUKEE/TIMM MOCLDY    32  27  80 S5        29.61S WCI  27
RACINE         CLEAR     30  25  81 SW7       29.62F WCI  23
BURLINGTON     PTCLDY    29  26  89 SW7       29.61F WCI  22
KENOSHA        CLEAR     30  26  85 SW10      29.61F WCI  21
FOND DU LAC    CLOUDY    33  28  81 SW6       29.57S WCI  28
SHEBOYGAN      CLOUDY    30  26  85 S6        29.58S WCI  24
WEST BEND      CLOUDY    32  28  86 CALM      29.58F
JUNEAU         CLOUDY    32  29  88 SW8       29.58F WCI  25
$$

LSZ147-162-080900-
LAKE SUPERIOR

STATION/POSITION TIME  TEMP    WIND        PRES    WAVE
                       AIR SEA DIR/SP/G            HT/PER
                 (UTC) (F)     (DEG/KT/KT) (MB)    (FT/S)
DEVILS ISLAND    0700   26      10/ 19/ 21 1004.7R
PORT WING        0740   27     340/ 19/ 22 1004.7R
SAXON HARBOR     0700   28                 1002.4R
$$

LMZ867-665-643>646-080900-
LAKE MICHIGAN

STATION/POSITION TIME  TEMP    WIND        PRES    WAVE
                       AIR SEA DIR/SP/G            HT/PER
                 (UTC) (F)     (DEG/KT/KT) (MB)    (FT/S)
CHAMBERS ISLAND  0700   34     180/  6/  9 1001.0F
NORTHPORT PIER   0700   36     210/  1/  8 1001.0F
KEWAUNEE LAKESHO 0700   34     240/  4/  7 1000.6F
SHEBOYGAN LAKESH 0700   32     230/  8/  9 1002.7F
PORT WASHINGTON  0740   32     240/  4/  7 1003.4F
MILWAUKEE LAKESH 0710   33     220/  8/  8   N/A
KENOSHA   LAKESH 0700   33     230/  5/  9 1003.7F
$$

TC  - TEMPERATURE IN CELSIUS
VSB - VISIBILITY IN STATUTE MILES
WCI - WIND CHILL INDEX
HX  - HEAT INDEX




USA.gov is the U.S. government's official web portal to all federal, state and local government web resources and services.